Temp
-7 -7 -7 -7 -7 -6 -7 -8 -7 -7 -7 -7 -7 -7 -7 -7 -7 -8 -8 -8 -8 -8 -8 -8 -8 -8 -7 -7 -7 -7 -7 -7 -7
-7 -7 -7 -7 -7 -7 -6 -7 -7 -7 -7 -7 -7 -7 -7 -7 -7 -7 -7 -7 -8 -8 -9 -8 -8 -8 -8 -7 -7 -7 -7 -7 -6
-7 -8 -7 -7 -7 -7 -6 -6 -7 -7 -7 -7 -7 -7 -7 -7 -7 -7 -7 -8 -8 -8 -8 -8 -8 -8 -8 -7 -7 -7 -7 -7 -6
-8 -8 -8 -8 -8 -8 -7 -7 -7 -7 -7 -7 -8 -7 -7 -7 -7 -7 -7 -8 -8 -8 -8 -8 -8 -8 -8 -7 -8 -8 -7 -7 -7
-8 -7 -8 -8 -8 -7 -8 -8 -8 -8 -7 -7 -7 -7 -7 -7 -7 -7 -8 -8 -8 -8 -8 -8 -8 -8 -8 -8 -8 -7 -8 -7 -7
-8 -8 -7 -8 -8 -8 -9 -9 -9 -8 -8 -8 -7 -7 -8 -8 -7 -7 -8 -8 -8 -8 -8 -8 -8 -8 -8 -8 -8 -8 -8 -7 -7
-8 -9 -9 -8 -8 -8 -9 -9 -10 -9 -8 -8 -8 -7 -8 -8 -8 -8 -8 -8 -8 -8 -8 -9 -8 -8 -8 -8 -8 -8 -7 -7 -7
-9 -9 -9 -8 -9 -9 -9 -10 -9 -10 -9 -8 -8 -8 -7 -8 -7 -8 -8 -8 -8 -8 -8 -8 -8 -8 -8 -8 -8 -8 -8 -8 -7
-10 -10 -10 -9 -9 -9 -10 -9 -8 -10 -10 -9 -8 -8 -7 -6 -7 -7 -8 -8 -8 -8 -8 -8 -8 -7 -8 -8 -8 -8 -7 -8 -7
-10 -10 -10 -9 -9 -9 -9 -9 -9 -9 -10 -9 -8 -8 -7 -7 -8 -7 -8 -8 -8 -8 -7 -7 -7 -7 -7 -8 -8 -8 -8 -8 -7
-10 -10 -10 -9 -9 -9 -9 -8 -9 -8 -9 -8 -7 -7 -7 -7 -8 -8 -8 -8 -8 -8 -8 -8 -7 -7 -7 -7 -7 -7 -7 -7 -7
-10 -10 -10 -9 -9 -8 -10 -9 -10 -9 -8 -7 -7 -8 -8 -8 -7 -8 -8 -8 -8 -7 -7 -7 -7 -7 -7 -7 -7 -7 -7 -7 -7
-10 -10 -10 -9 -8 -8 -9 -9 -10 -9 -8 -8 -8 -8 -8 -7 -7 -7 -7 -7 -7 -7 -7 -7 -7 -8 -7 -7 -7 -7 -7 -7 -7
-10 -10 -9 -9 -9 -9 -8 -8 -9 -9 -9 -8 -8 -8 -8 -7 -7 -7 -7 -7 -7 -7 -7 -7 -7 -7 -7 -7 -7 -6 -6 -6 -6
-11 -10 -10 -9 -9 -9 -8 -8 -9 -9 -8 -8 -8 -8 -8 -7 -7 -7 -7 -7 -7 -7 -7 -6 -6 -6 -6 -6 -6 -5 -6 -6 -5
-10 -10 -10 -9 -9 -9 -9 -9 -9 -9 -8 -8 -8 -8 -8 -8 -7 -7 -7 -7 -7 -7 -7 -6 -6 -6 -6 -6 -5 -5 -5 -5 -5
-11 -10 -9 -9 -9 -9 -8 -9 -9 -9 -8 -8 -8 -8 -8 -8 -7 -7 -8 -7 -7 -7 -7 -6 -6 -6 -6 -5 -5 -5 -5 -5 -5
-11 -10 -9 -9 -9 -9 -9 -9 -9 -9 -8 -8 -8 -8 -8 -8 -8 -8 -8 -8 -8 -7 -7 -7 -6 -6 -5 -5 -5 -5 -5 -5 -5
-10 -10 -9 -10 -10 -10 -10 -9 -9 -8 -8 -8 -8 -8 -8 -8 -8 -8 -8 -8 -8 -8 -8 -7 -7 -6 -6 -6 -6 -5 -5 -5 -5
-9 -10 -11 -10 -10 -10 -9 -9 -9 -8 -8 -8 -8 -8 -8 -8 -8 -8 -8 -8 -8 -8 -9 -8 -8 -8 -7 -7 -7 -7 -7 -8 -8
Height
5866 5867 5869 5867 5865 5866 5869 5871 5874 5877 5878 5877 5879 5881 5882 5883 5885 5886 5888 5890 5892 5894 5897 5898 5900 5903 5905 5906 5908 5909 5911 5914 5916
5862 5865 5866 5867 5866 5866 5867 5868 5871 5873 5875 5876 5877 5880 5881 5882 5884 5884 5885 5887 5889 5890 5892 5893 5895 5897 5899 5901 5903 5905 5908 5909 5911
5858 5862 5863 5864 5863 5864 5865 5867 5870 5871 5872 5873 5875 5878 5879 5880 5880 5881 5882 5884 5885 5887 5889 5891 5892 5893 5894 5895 5897 5898 5899 5903 5905
5853 5857 5859 5862 5862 5862 5862 5863 5867 5868 5868 5870 5871 5873 5876 5877 5877 5877 5879 5881 5883 5883 5884 5885 5886 5887 5888 5890 5892 5893 5893 5895 5898
5855 5856 5857 5859 5860 5860 5859 5860 5862 5864 5865 5867 5868 5868 5871 5873 5875 5876 5875 5877 5878 5879 5880 5880 5880 5879 5880 5881 5884 5888 5890 5890 5891
5849 5853 5854 5856 5856 5855 5856 5858 5858 5862 5862 5863 5865 5867 5866 5867 5870 5872 5872 5873 5874 5874 5873 5873 5873 5875 5876 5876 5876 5877 5880 5883 5885
5845 5848 5850 5852 5850 5849 5850 5852 5853 5855 5858 5860 5862 5863 5864 5865 5866 5867 5867 5869 5869 5870 5871 5871 5869 5869 5872 5872 5873 5874 5875 5876 5878
5840 5843 5844 5846 5843 5841 5843 5843 5847 5850 5852 5855 5858 5860 5860 5861 5862 5862 5863 5865 5865 5865 5864 5860 5864 5862 5865 5867 5867 5868 5865 5868 5870
5834 5836 5838 5838 5836 5837 5839 5839 5839 5843 5846 5849 5852 5854 5857 5858 5856 5858 5857 5859 5860 5860 5858 5858 5859 5857 5857 5857 5855 5858 5859 5860 5861
5829 5830 5831 5834 5833 5833 5834 5834 5840 5839 5844 5848 5850 5852 5851 5847 5831 5850 5853 5852 5853 5853 5852 5853 5854 5852 5850 5849 5849 5849 5851 5851 5850
5823 5824 5828 5832 5831 5827 5827 5826 5825 5836 5839 5844 5846 5844 5846 5848 5850 5850 5846 5845 5844 5843 5843 5843 5844 5844 5843 5843 5841 5839 5839 5840 5841
5817 5819 5822 5824 5823 5822 5818 5807 5810 5826 5834 5838 5841 5841 5842 5845 5845 5843 5841 5840 5838 5836 5834 5833 5834 5833 5833 5833 5832 5830 5830 5830 5832
5811 5814 5816 5817 5812 5814 5809 5797 5805 5820 5828 5831 5835 5837 5838 5839 5838 5836 5835 5834 5831 5829 5829 5827 5825 5823 5822 5823 5824 5821 5820 5819 5820
5804 5809 5808 5808 5808 5807 5810 5808 5803 5810 5820 5827 5830 5832 5831 5831 5829 5829 5828 5827 5824 5823 5822 5819 5817 5815 5813 5813 5813 5812 5811 5809 5810
5798 5802 5804 5805 5805 5806 5806 5807 5808 5813 5819 5823 5825 5824 5825 5822 5822 5821 5821 5820 5818 5817 5815 5812 5811 5808 5805 5802 5802 5802 5800 5798 5797
5794 5797 5801 5803 5802 5802 5804 5804 5808 5811 5813 5816 5817 5817 5816 5815 5815 5814 5813 5811 5810 5808 5807 5805 5803 5799 5796 5793 5791 5790 5789 5787 5786
5789 5793 5796 5797 5799 5800 5801 5802 5804 5806 5807 5807 5810 5810 5809 5808 5807 5806 5806 5804 5803 5801 5799 5796 5793 5791 5788 5785 5782 5779 5777 5776 5774
5782 5787 5790 5791 5791 5793 5795 5796 5798 5800 5801 5801 5804 5803 5802 5801 5800 5800 5799 5798 5796 5794 5790 5787 5783 5781 5778 5774 5770 5768 5765 5762 5761
5777 5779 5782 5783 5784 5786 5788 5789 5791 5792 5794 5795 5796 5796 5795 5793 5794 5794 5794 5792 5790 5787 5782 5779 5775 5771 5767 5763 5757 5751 5747 5745 5744
5772 5772 5773 5775 5777 5778 5780 5781 5784 5785 5785 5787 5787 5787 5787 5788 5788 5789 5788 5786 5783 5780 5775 5773 5768 5763 5757 5753 5748 5742 5736 5731 5729
Wind_Speed
7 6 4 9 11 13 16 17 16 16 15 14 13 17 18 17 16 17 18 20 23 21 22 22 20 21 20 20 20 20 21 22 19
2 2 15 8 12 14 14 13 21 17 18 17 16 16 18 20 20 21 19 19 20 20 23 24 24 26 26 26 23 23 24 25 24
9 6 14 11 9 12 12 9 21 18 17 18 19 19 19 17 18 19 18 19 21 21 24 27 28 29 30 30 28 28 27 28 27
12 9 7 16 9 9 13 14 16 16 19 17 18 21 21 20 20 19 17 19 22 24 25 25 26 29 31 32 33 33 31 30 30
4 1 6 16 15 1 13 22 20 16 19 19 22 23 21 21 22 21 20 21 22 23 24 27 29 29 30 33 30 37 35 33 34
9 4 8 8 14 9 11 19 24 19 15 19 21 21 22 22 21 23 21 20 22 25 28 28 28 30 31 32 33 32 35 37 36
12 7 8 11 11 12 17 18 26 23 19 19 21 22 20 20 21 22 21 21 23 24 26 31 34 30 30 33 33 33 33 35 36
14 12 16 14 16 19 21 21 34 25 25 23 26 27 21 21 19 18 19 21 23 27 31 31 26 33 31 35 37 37 36 37 38
12 15 16 17 19 14 16 27 29 34 29 29 29 25 20 18 19 17 18 20 21 23 28 28 26 25 21 32 33 40 36 38 39
22 20 20 15 20 23 25 24 24 31 30 31 28 25 19 20 13 16 20 22 24 26 28 28 26 27 29 31 29 25 25 34 41
26 24 25 20 22 18 24 26 50 32 30 33 26 20 20 19 21 21 21 23 26 29 31 31 28 27 27 28 30 32 32 34 30
32 32 32 25 28 21 28 51 48 34 36 31 25 21 19 21 21 22 22 25 28 30 31 32 32 30 30 29 29 33 35 36 37
35 32 28 26 20 15 20 17 36 32 29 26 22 21 19 21 22 22 26 29 28 28 30 33 35 35 34 33 32 36 35 37 36
36 34 23 17 18 19 7 11 22 21 21 20 20 19 21 23 22 24 27 28 27 28 29 31 32 32 31 29 30 34 39 40 40
30 24 20 17 16 14 15 15 14 14 16 18 20 19 23 22 23 25 28 28 28 30 30 30 30 31 33 34 33 32 34 37 38
25 24 24 17 15 13 15 16 20 20 21 20 20 23 24 23 25 26 26 28 29 29 30 28 29 31 33 34 34 33 34 36 38
33 24 20 17 16 14 16 15 17 21 22 21 24 25 23 24 25 24 27 27 28 29 29 31 32 30 32 33 34 36 37 37 37
36 33 26 20 14 12 13 15 18 20 20 20 23 22 22 23 23 26 27 26 27 27 28 29 31 32 33 35 37 37 38 39 40
33 32 26 16 14 15 14 13 15 18 19 19 18 19 21 22 25 24 23 23 23 24 25 27 30 32 31 32 33 38 40 42 42
31 27 19 15 14 15 18 16 15 16 17 17 17 20 22 22 20 21 20 21 22 21 22 24 26 28 30 25 23 31 31 31 37
Wind_Direction
237 258 281 175 209 216 215 202 220 218 218 202 213 212 210 212 214 223 231 231 225 224 225 226 223 231 237 236 233 236 225 229 232
238 235 253 228 224 212 224 218 208 209 229 221 216 219 215 213 214 221 224 225 222 222 229 230 227 228 227 232 228 233 232 226 230
179 342 234 207 205 214 227 219 219 242 213 214 223 224 220 219 218 222 227 229 230 232 233 233 233 232 231 233 227 230 231 232 230
191 207 315 217 188 225 249 239 240 239 225 224 217 224 226 225 221 219 224 232 236 238 240 239 237 231 233 237 238 233 230 232 232
249 224 249 215 210 4 237 251 246 237 222 223 223 218 219 227 232 224 225 231 237 242 245 247 243 241 232 235 241 239 237 236 236
241 277 242 196 229 265 280 239 256 248 232 226 228 222 219 223 229 230 232 232 239 245 245 246 249 251 250 243 239 238 237 239 240
246 259 257 259 284 275 280 256 232 242 238 233 239 233 217 216 223 229 235 240 248 254 258 257 252 247 250 250 249 245 243 242 243
264 273 282 306 309 282 267 282 227 233 234 236 237 233 223 228 228 234 244 247 254 257 258 291 274 246 245 254 252 246 240 244 247
284 293 303 316 316 276 284 298 213 223 225 234 235 231 226 229 232 248 258 264 268 274 275 278 280 282 253 275 270 240 242 244 244
279 283 289 314 326 306 284 284 237 223 230 237 239 226 215 239 246 257 263 273 279 279 280 277 273 270 269 271 271 265 268 243 248
268 270 280 287 302 276 281 285 290 253 236 236 227 219 226 236 249 261 270 278 282 283 282 281 279 274 272 272 270 268 262 259 260
268 269 273 287 293 287 297 292 234 215 230 224 215 217 229 247 257 268 274 279 282 285 286 287 285 281 276 273 270 268 266 262 258
260 267 276 290 287 278 310 192 174 200 207 210 217 225 236 254 263 275 282 283 282 282 286 287 287 284 281 276 272 270 269 269 267
263 267 292 284 280 282 273 235 186 181 197 209 226 236 246 259 274 282 287 289 286 280 287 293 287 284 282 281 277 273 272 270 268
268 274 277 278 262 249 232 219 190 193 203 221 233 250 260 271 280 286 287 287 285 278 286 292 293 290 287 284 281 277 272 271 273
266 251 256 270 262 252 235 232 190 199 227 243 257 265 271 279 282 284 288 290 290 286 285 292 296 293 290 288 286 283 277 272 268
249 242 260 264 259 242 232 235 237 245 249 258 263 265 272 277 281 284 288 291 292 288 288 291 295 295 292 288 286 284 281 276 269
234 247 253 249 252 255 248 247 249 249 251 255 258 264 267 272 278 284 286 286 287 289 293 297 302 303 301 298 293 286 281 275 270
231 244 237 238 253 260 257 253 250 250 251 254 259 266 273 281 283 283 284 284 286 292 301 306 307 309 310 310 303 292 283 267 257
226 228 235 250 263 270 266 262 258 255 259 264 268 274 282 283 279 282 284 285 290 299 305 310 317 325 323 325 321 316 313 301 269